Weather History for Imperial, NE

Change the Weather History Date:

Saturday, June 15, 2013

  Actual Average Record
Temperature  
Mean Temperature 74 °F 70 °F  
Max Temperature 88 °F 84 °F 105 °F (1952)
Min Temperature 59 °F 56 °F 42 °F (1989)
Degree Days  
Heating Degree Days 0 1  
Month to date heating degree days 24 25  
Since 1 June heating degree days 24 25  
Cooling Degree Days 9 6  
Month to date cooling degree days 84 67  
Year to date cooling degree days 152 111  
Since 1 June cooling degree days 84 67  
Growing Degree Days 24 (Base 50)    
Moisture  
Dew Point 58 °F    
Average Humidity 62    
Maximum Humidity 87    
Minimum Humidity 36    
Precipitation  
Precipitation 0.00 in 0.11 in 2.52 in (1934)
Sea Level Pressure  
Sea Level Pressure 29.88 in    
Wind  
Wind Speed 11 mph (NE)    
Max Wind Speed 22 mph    
Max Gust Speed 28 mph    
Visibility 10 miles    
Events      
T = Trace of Precipitation, MM = Missing Value Source: NWS Daily Summary

Daily Weather History Graph

Daily Weather History Graph

Search for Another Location

Airport:

Trip Planner

Search our weather history database for the weather conditions in past years. The results will help you decide how hot, cold, wet, or windy it might be!

Date:

Astronomy

Jun. 15, 2013 Rise Set
Actual Time 5:15 AM MDT 8:18 PM MDT
Civil Twilight 4:42 AM MDT 8:52 PM MDT
Nautical Twilight 3:59 AM MDT 9:34 PM MDT
Astronomical Twilight 3:10 AM MDT 10:24 PM MDT
Moon 11:53 AM MDT (6/15) No Moon Set
Length of Visible Light 16h 09m
Length of Day
15h 03m
Waxing Crescent, 40% of the Moon is Illuminated
Jun 15
Waxing Crescent
Jun 16
First Quarter
Jun 23
Full
Jun 29
Last Quarter
Jul 8
New

Hourly Weather History & Observations

Time (MDT) Temp. Heat Index Dew Point Humidity Pressure Visibility Wind Dir Wind Speed Gust Speed Precip Events Conditions
12:53 AM 68.0 °F - 55.9 °F 65% 29.83 in 10.0 mi Calm Calm - N/A   Clear
1:53 AM 66.0 °F - 54.0 °F 65% 29.84 in 10.0 mi Calm Calm - N/A   Clear
2:53 AM 64.0 °F - 54.0 °F 70% 29.85 in 10.0 mi SSW 3.5 mph - N/A   Clear
3:53 AM 60.1 °F - 54.0 °F 80% 29.87 in 10.0 mi Calm Calm - N/A   Clear
4:53 AM 64.0 °F - 61.0 °F 90% 29.86 in 10.0 mi NNE 13.8 mph - N/A   Clear
5:53 AM 64.0 °F - 61.0 °F 90% 29.87 in 10.0 mi NNE 11.5 mph - N/A   Clear
6:53 AM 66.9 °F - 59.0 °F 76% 29.98 in 10.0 mi NE 18.4 mph - N/A   Clear
7:53 AM 71.1 °F - 57.0 °F 61% 29.88 in 10.0 mi ENE 16.1 mph - N/A   Clear
8:53 AM 73.9 °F - 59.0 °F 59% 29.90 in 10.0 mi ENE 15.0 mph 19.6 mph N/A   Clear
9:53 AM 77.0 °F - 59.0 °F 54% 29.89 in 10.0 mi ENE 10.4 mph 18.4 mph N/A   Clear
10:53 AM 81.0 °F 81.3 °F 59.0 °F 47% 29.89 in 10.0 mi East 10.4 mph - N/A   Mostly Cloudy
11:53 AM 82.9 °F 82.6 °F 57.9 °F 42% 29.89 in 10.0 mi NNE 10.4 mph - N/A   Partly Cloudy
12:53 PM 87.1 °F 86.1 °F 57.9 °F 37% 29.88 in 10.0 mi North 10.4 mph - N/A   Scattered Clouds
1:53 PM 86.0 °F 84.9 °F 57.0 °F 37% 29.88 in 10.0 mi NNE 8.1 mph - N/A   Partly Cloudy
2:53 PM 84.9 °F 83.9 °F 57.0 °F 38% 29.87 in 10.0 mi NNE 10.4 mph 18.4 mph N/A   Scattered Clouds
3:53 PM 87.1 °F 86.1 °F 57.9 °F 37% 29.85 in 10.0 mi ENE 17.3 mph 24.2 mph N/A   Clear
4:53 PM 84.9 °F 84.4 °F 59.0 °F 41% 29.84 in 10.0 mi NNE 15.0 mph - N/A   Mostly Cloudy
5:53 PM 82.9 °F 82.8 °F 59.0 °F 44% 29.84 in 10.0 mi NE 16.1 mph - N/A   Mostly Cloudy
6:53 PM 80.1 °F 80.7 °F 59.0 °F 48% 29.88 in 10.0 mi ENE 10.4 mph - N/A   Clear
7:53 PM 77.0 °F - 59.0 °F 54% 29.89 in 10.0 mi ENE 8.1 mph - N/A   Clear
8:53 PM 75.0 °F - 59.0 °F 57% 29.92 in 10.0 mi ENE 9.2 mph - N/A   Clear
9:53 PM 73.9 °F - 59.0 °F 59% 29.94 in 10.0 mi East 6.9 mph - N/A   Clear
10:53 PM 70.0 °F - 59.0 °F 68% 29.89 in 10.0 mi ENE 11.5 mph - N/A   Clear
11:53 PM 69.1 °F - 60.1 °F 73% 29.93 in 10.0 mi ESE 11.5 mph - N/A   Clear